国际通讯卫星-513星 (NSS-513 (INTELSAT 513))

导读 | 星芒AI

NSS-513(INTELSAT 513)是一颗由Intelsat运营的通信卫星,由Space Systems Loral(SSL)制造,于2000年12月12日通过阿丽亚娜5号火箭发射升空。该卫星位于东经265度轨道位置,主要为北美、南美和太平洋地区提供C波段和Ku波段的广播和通信服务。NSS-513设计寿命为15年,搭载多个转发器,广泛用于电视广播、企业通信和政府应用。

基本信息
目录编号:
19121
目录名称:
NSS 513 (INTELSAT 513)
国际标识:
1988-040A
轨道中心:
EARTH
卫星名称:
国际通讯卫星-513星
卫星全名:
国际通讯卫星-513星 (NSS-513 (INTELSAT 513))
卫星状态:
在轨 (已飞行13679 天)
发射日期:
1988-05-17 UTC
国别 :
荷兰 (NL)
星等 :
--
轨道信息
数据来源 国际轨道数据 AOE轨道数据
星历时间 2025-10-28T23:19:16+0800
15小时前
查看轨道信息
2025-10-28T22:00:00+0800
16小时前
查看轨道信息
半长轴 42648.28km 42648.223km
偏心率 0.0010691 0.0010648
轨道倾角 14.764° 14.764°
近地点辐角 129.658° 129.879°
升交点赤经 350.491° 350.492°
平近点角 245.552° 225.799°
近地点 36224.549km 36224.676km
远地点 36315.741km 36315.5km
周期 1460.871分钟 1460.869分钟
每日圈数 0.985713 0.985715
详细信息
卫星平台:
Intelsat V
平衡模式:
三轴稳定
覆盖范围:
全球
运营商:
国际卫星通信公司
运营商所在国:
美国
制造商(研发单位):
福特工程公司
制造商所在国:
美国
使用方式:
暂无
卫星简介
从1965年4月至1984年3月,国际通信卫星组织发射了5代、6种不同性能的卫星共计35颗,除6颗卫星因运载火箭和远地点发动机故障而发射失败外,其余29颗卫星均被送到了预定的静止轨道位置。1984年8月前后,国际通信卫星组织利用部署在大西洋、太平洋、印度洋上空的15颗国际通信卫星,为遍布世界各地170多个国家或地区提供电话、电传、电报、电视和数据传输等电信业务;该卫星已退役。
2D轨道图
3D轨道图
轨道高度分析图
轨道倾角分析图
轨道综合分析图
查看轨道综合分析图